Home > Weather > Prague > Past weeks

Flag for Czech Republic Weather for the Past 2 Weeks in Prague, Czech Republic

Now
30 °F

Overcast.


Feels Like: 30 °F
Forecast: 34 / 49 °F
Wind: 2 mph from North

Location: Prague Ruzyne Airport

Current Time: Feb 13, 2016 at 3:41:43 AM

Latest Report: Feb 13, 2016 at 3:00 AM


Visibility: 5 mi

Pressure: 29.42 "Hg

Humidity: 93%

Dew point: 28 °F

Location of PragueLocation

Historic Weather in Prague — Graph

°F

Prague Temperature Yesterday

Maximum temperature yesterday: 41 °F (at 12:00 PM)
Minimum temperature yesterday: 27 °F (at 9:30 PM)
Average temperature yesterday: 35 °F

High & Low Weather Summary for the Past Weeks

 TemperatureHumidityPressure
High54 °F (Feb 1, 4:00 PM)100% (Feb 1, 9:30 AM)30.30 "Hg (Feb 1, 9:30 AM)
Low27 °F (Feb 12, 9:30 PM)47% (Feb 8, 1:30 PM)29.18 "Hg (Feb 9, 9:00 PM)
Average40 °F77%29.85 "Hg
* Reported Jan 29 2:00 AM — Feb 13 2:00 AM, Prague, Weather by CustomWeather, © 2016

Note: Actual official high and low records may vary slightly from our data, if they occured in-between our weather recording intervals... More about our weather records

Advertising

Prague Weather History for the Previous 24 Hours

 ConditionsComfort  
Time TempWeatherWind HumidityBarometerVisibility
2:00 AM
Sat, Feb 13
30 °FOvercast.5 mph93%29.42 "Hg5 mi
1:00 AM28 °FPassing clouds.5 mph100%29.45 "HgN/A
12:00 AM28 °FClear.3 mph93%29.45 "Hg10 mi
11:00 PM
Fri, Feb 12
30 °FPassing clouds.3 mph86%29.45 "HgN/A
10:30 PM30 °FClear.No wind86%29.45 "Hg10 mi
10:00 PM28 °FClear.7 mph100%29.47 "Hg10 mi
9:30 PM27 °FClear.7 mph93%29.47 "Hg10 mi
9:00 PM32 °FClear.7 mph87%29.47 "Hg10 mi
8:30 PM30 °FClear.8 mph93%29.47 "Hg10 mi
8:00 PM32 °FClear.9 mph87%29.47 "Hg10 mi
7:30 PM32 °FClear.9 mph87%29.50 "Hg10 mi
7:00 PM34 °FClear.12 mph81%29.50 "Hg10 mi
6:30 PM34 °FClear.10 mph75%29.50 "Hg10 mi
6:00 PM32 °FClear.7 mph75%29.53 "Hg10 mi
5:30 PM36 °FPassing clouds.5 mph70%29.53 "HgN/A
5:00 PM37 °FPassing clouds.5 mph70%29.53 "HgN/A
4:30 PM37 °FPassing clouds.7 mph70%29.53 "HgN/A
4:00 PM41 °FPassing clouds.6 mph61%29.56 "HgN/A
3:30 PM41 °FScattered clouds.1 mph61%29.56 "HgN/A
3:00 PM41 °FPassing clouds.2 mph57%29.56 "HgN/A
2:30 PM41 °FPassing clouds.2 mph61%29.56 "HgN/A
2:00 PM39 °FPassing clouds.6 mph65%29.59 "HgN/A
1:30 PM39 °FScattered clouds.5 mph65%29.59 "HgN/A
1:00 PM37 °FSprinkles. Scattered clouds.12 mph75%29.59 "HgN/A
12:30 PM39 °FScattered clouds.10 mph65%29.62 "HgN/A
12:00 PM41 °FScattered clouds.8 mph66%29.62 "HgN/A
11:30 AM39 °FPassing clouds.6 mph75%29.65 "HgN/A
11:00 AM37 °FScattered clouds.7 mph81%29.65 "HgN/A
10:30 AM36 °FPassing clouds.9 mph87%29.65 "HgN/A
10:00 AM36 °FScattered clouds.12 mph81%29.65 "HgN/A
9:30 AM36 °FPassing clouds.9 mph87%29.65 "HgN/A
9:00 AM36 °FPassing clouds.9 mph87%29.65 "HgN/A
8:30 AM34 °FPassing clouds.5 mph93%29.68 "HgN/A
8:00 AM34 °FPassing clouds.6 mph87%29.68 "HgN/A
7:30 AM32 °FSunny.8 mph93%29.68 "Hg10 mi
7:00 AM32 °FClear.8 mph93%29.68 "Hg10 mi
6:30 AM32 °FClear.7 mph87%29.65 "Hg10 mi
6:00 AM32 °FClear.8 mph87%29.68 "Hg10 mi
5:00 AM32 °FClear.9 mph87%29.68 "Hg10 mi
4:30 AM32 °FClear.10 mph87%29.68 "Hg10 mi
4:00 AM32 °FPassing clouds.7 mph87%29.68 "HgN/A
3:30 AM34 °FPassing clouds.12 mph81%29.68 "HgN/A
3:00 AM32 °FPassing clouds.9 mph87%29.68 "HgN/A
Weather by CustomWeather, © 2016

See weather overviewHow to use our weather pages